| time (UTC) | temp C | wind direction | speed KPH | gust KPH | rain 1hr cm | rain 24hr cm | rain mn cm | humidity % | barometer mb |
| 20260506014043 | 9 | 0.0 | 0.0 | 0.00 | 0.23 | 0.00 | 99 | 1007.0 | |
| 20260506013106 | 10 | 0.0 | 0.0 | 0.00 | 0.23 | 0.00 | 99 | 1007.2 | |
| 20260506012047 | 10 | 0.0 | 0.0 | 0.00 | 0.23 | 0.00 | 99 | 1007.4 | |
| 20260506011051 | 10 | 0.0 | 0.0 | 0.00 | 0.23 | 0.00 | 99 | 1007.4 | |
| 20260506010115 | 10 | 0.0 | 0.0 | 0.00 | 0.23 | 0.00 | 99 | 1007.5 | |
| 20260506005055 | 10 | 0.0 | 0.0 | 0.00 | 0.23 | 0.00 | 99 | 1007.5 | |
| 20260506004058 | 10 | 0.0 | 0.0 | 0.00 | 0.23 | 0.00 | 99 | 1007.4 | |
| 20260506003123 | 10 | 0.0 | 0.0 | 0.00 | 0.23 | 0.00 | 99 | 1007.6 | |
| 20260506002042 | 11 | 0.0 | 0.0 | 0.00 | 0.23 | 0.00 | 99 | 1007.7 | |
| 20260506001127 | 11 | 0.0 | 0.0 | 0.00 | 0.23 | 0.00 | 99 | 1007.8 | |
| 20260506000027 | 11 | 0.0 | 0.0 | 0.00 | 0.23 | 0.00 | 99 | 1007.8 | |
| 20260505235051 | 11 | 23 | 0.0 | 3.2 | 0.00 | 0.23 | 0.00 | 99 | 1007.8 |
| 20260505234115 | 11 | 0.0 | 0.0 | 0.00 | 0.23 | 0.00 | 99 | 1007.8 | |
| 20260505233035 | 11 | 0.0 | 0.0 | 0.00 | 0.23 | 0.00 | 99 | 1007.9 | |
| 20260505232059 | 12 | 3 | 1.6 | 3.2 | 0.00 | 0.23 | 0.00 | 99 | 1007.9 |
| 20260505231123 | 11 | 0.0 | 0.0 | 0.00 | 0.23 | 0.00 | 99 | 1008.2 | |
| 20260505225108 | 12 | 27 | 0.0 | 1.6 | 0.00 | 0.23 | 0.00 | 99 | 1008.2 |
| 20260505224047 | 12 | 0.0 | 0.0 | 0.00 | 0.23 | 0.00 | 99 | 1008.1 | |
| 20260505223050 | 12 | 0.0 | 0.0 | 0.00 | 0.23 | 0.00 | 99 | 1008.1 | |
| 20260505222115 | 12 | 0.0 | 0.0 | 0.00 | 0.23 | 0.00 | 99 | 1008.1 | |
| 20260505221035 | 12 | 0.0 | 0.0 | 0.00 | 0.23 | 0.00 | 99 | 1008.0 | |
| 20260505220059 | 12 | 0.0 | 0.0 | 0.00 | 0.23 | 0.00 | 99 | 1008.1 | |
| 20260505215123 | 12 | 3 | 1.6 | 3.2 | 0.00 | 0.23 | 0.23 | 99 | 1008.2 |
| 20260505214043 | 12 | 0.0 | 0.0 | 0.00 | 0.23 | 0.23 | 99 | 1008.1 | |
| 20260505213107 | 12 | 0.0 | 0.0 | 0.00 | 0.23 | 0.23 | 99 | 1008.0 | |
| 20260505212027 | 12 | 0.0 | 0.0 | 0.00 | 0.23 | 0.23 | 99 | 1008.1 | |
| 20260505211051 | 12 | 351 | 0.0 | 1.6 | 0.00 | 0.23 | 0.23 | 99 | 1008.0 |
| 20260505210135 | 12 | 6 | 1.6 | 3.2 | 0.00 | 0.23 | 0.23 | 99 | 1008.2 |
| 20260505205036 | 12 | 0.0 | 0.0 | 0.00 | 0.23 | 0.23 | 99 | 1008.1 | |
| 20260505204059 | 12 | 204 | 1.6 | 4.8 | 0.00 | 0.23 | 0.23 | 99 | 1008.2 |
| 20260505203124 | 13 | 0.0 | 0.0 | 0.00 | 0.23 | 0.23 | 99 | 1008.1 | |
| 20260505202043 | 13 | 0.0 | 0.0 | 0.00 | 0.23 | 0.23 | 99 | 1008.1 | |
| 20260505201107 | 13 | 0.0 | 0.0 | 0.00 | 0.23 | 0.23 | 99 | 1008.1 | |
| 20260505200027 | 13 | 0.0 | 0.0 | 0.03 | 0.23 | 0.23 | 99 | 1007.9 | |
| 20260505195051 | 13 | 0.0 | 0.0 | 0.03 | 0.23 | 0.23 | 99 | 1007.9 | |
| 20260505194115 | 13 | 0.0 | 0.0 | 0.05 | 0.23 | 0.23 | 99 | 1007.8 | |
| 20260505193036 | 13 | 0.0 | 0.0 | 0.08 | 0.23 | 0.23 | 99 | 1007.6 | |
| 20260505192059 | 13 | 0.0 | 0.0 | 0.10 | 0.23 | 0.23 | 99 | 1007.5 | |
| 20260505191124 | 13 | 0.0 | 0.0 | 0.15 | 0.23 | 0.23 | 99 | 1007.6 | |
| 20260505190044 | 13 | 0.0 | 0.0 | 0.13 | 0.20 | 0.20 | 99 | 1007.7 | |
| 20260505185108 | 13 | 0.0 | 0.0 | 0.13 | 0.20 | 0.20 | 99 | 1007.7 | |
| 20260505184028 | 13 | 0.0 | 0.0 | 0.10 | 0.18 | 0.18 | 99 | 1007.5 | |
| 20260505183035 | 13 | 0.0 | 0.0 | 0.10 | 0.15 | 0.15 | 99 | 1007.6 | |
| 20260505182059 | 13 | 311 | 0.0 | 1.6 | 0.08 | 0.13 | 0.13 | 98 | 1007.5 |
| 20260505181143 | 13 | 0.0 | 0.0 | 0.05 | 0.08 | 0.08 | 98 | 1007.6 | |
| 20260505180043 | 14 | 0.0 | 0.0 | 0.05 | 0.08 | 0.08 | 96 | 1007.5 | |
| 20260505175127 | 14 | 0.0 | 0.0 | 0.05 | 0.08 | 0.08 | 95 | 1007.6 | |
| 20260505174028 | 14 | 0.0 | 0.0 | 0.05 | 0.08 | 0.08 | 93 | 1007.5 | |
| 20260505173051 | 14 | 0.0 | 0.0 | 0.03 | 0.05 | 0.05 | 90 | 1007.5 | |
| 20260505172135 | 15 | 317 | 0.0 | 1.6 | 0.03 | 0.05 | 0.05 | 88 | 1007.6 |
| 20260505171036 | 15 | 247 | 0.0 | 1.6 | 0.00 | 0.03 | 0.03 | 86 | 1007.5 |
| 20260505170059 | 15 | 105 | 0.0 | 1.6 | 0.00 | 0.03 | 0.03 | 84 | 1007.6 |
| 20260505165124 | 15 | 302 | 1.6 | 4.8 | 0.00 | 0.03 | 0.03 | 84 | 1007.5 |
| 20260505164044 | 15 | 0.0 | 0.0 | 0.00 | 0.03 | 0.03 | 83 | 1007.6 | |
| 20260505163107 | 15 | 233 | 1.6 | 3.2 | 0.00 | 0.03 | 0.03 | 84 | 1007.7 |
| 20260505162027 | 16 | 0.0 | 0.0 | 0.00 | 0.03 | 0.03 | 84 | 1007.7 | |
| 20260505161132 | 16 | 187 | 0.0 | 1.6 | 0.00 | 0.03 | 0.03 | 84 | 1007.7 |
| 20260505160136 | 16 | 39 | 1.6 | 3.2 | 0.00 | 0.03 | 0.03 | 85 | 1007.8 |
| 20260505153123 | 15 | 88 | 0.0 | 3.2 | 0.00 | 0.03 | 0.03 | 85 | 1007.9 |
| 20260505152044 | 15 | 69 | 1.6 | 4.8 | 0.00 | 0.03 | 0.03 | 85 | 1008.0 |
| 20260505151108 | 16 | 125 | 1.6 | 4.8 | 0.00 | 0.03 | 0.03 | 85 | 1008.0 |
| 20260505124027 | 15 | 243 | 0.0 | 1.6 | 0.00 | 0.00 | 0.00 | 85 | 1009.2 |
| 20260505123051 | 15 | 210 | 0.0 | 1.6 | 0.00 | 0.00 | 0.00 | 85 | 1009.1 |
| 20260505122116 | 16 | 269 | 1.6 | 4.8 | 0.00 | 0.00 | 0.00 | 82 | 1009.0 |
| 20260505121035 | 16 | 236 | 3.2 | 4.8 | 0.00 | 0.00 | 0.00 | 80 | 1009.1 |
| 20260505120100 | 16 | 175 | 3.2 | 9.7 | 0.00 | 0.00 | 0.00 | 78 | 1009.1 |
| 20260505115020 | 16 | 224 | 4.8 | 8.0 | 0.00 | 0.00 | 0.00 | 76 | 1009.0 |
| 20260505114043 | 16 | 240 | 3.2 | 4.8 | 0.00 | 0.00 | 0.00 | 74 | 1009.1 |
| 20260505113108 | 16 | 256 | 3.2 | 8.0 | 0.00 | 0.00 | 0.00 | 74 | 1009.2 |
| 20260505112028 | 16 | 230 | 1.6 | 3.2 | 0.00 | 0.00 | 0.00 | 74 | 1009.2 |
| 20260505111052 | 16 | 272 | 1.6 | 4.8 | 0.00 | 0.00 | 0.00 | 74 | 1009.2 |
| 20260505110116 | 16 | 290 | 1.6 | 3.2 | 0.00 | 0.00 | 0.00 | 74 | 1009.2 |
| 20260505102043 | 16 | 179 | 3.2 | 8.0 | 0.00 | 0.00 | 0.00 | 73 | 1009.2 |
| 20260505101107 | 17 | 208 | 4.8 | 4.8 | 0.00 | 0.00 | 0.00 | 72 | 1009.3 |
| 20260505100048 | 17 | 227 | 1.6 | 8.0 | 0.00 | 0.00 | 0.00 | 73 | 1009.4 |
| 20260505095051 | 17 | 246 | 3.2 | 4.8 | 0.00 | 0.00 | 0.00 | 74 | 1009.4 |
| 20260505094116 | 17 | 170 | 3.2 | 8.0 | 0.00 | 0.00 | 0.00 | 72 | 1009.5 |
| 20260505093117 | 17 | 252 | 1.6 | 3.2 | 0.00 | 0.00 | 0.00 | 71 | 1009.4 |
| 20260505092100 | 17 | 184 | 1.6 | 3.2 | 0.00 | 0.00 | 0.00 | 69 | 1009.5 |
| 20260505091020 | 17 | 174 | 3.2 | 4.8 | 0.00 | 0.00 | 0.00 | 68 | 1009.4 |
| 20260505090044 | 17 | 249 | 3.2 | 8.0 | 0.00 | 0.00 | 0.00 | 69 | 1009.6 |
| 20260505085108 | 17 | 188 | 4.8 | 11.3 | 0.00 | 0.00 | 0.00 | 70 | 1009.6 |
| 20260505084047 | 17 | 200 | 3.2 | 8.0 | 0.00 | 0.00 | 0.00 | 70 | 1009.7 |
| 20260505083052 | 17 | 0.0 | 0.0 | 0.00 | 0.00 | 0.00 | 70 | 1009.7 | |
| 20260505082116 | 17 | 230 | 0.0 | 1.6 | 0.00 | 0.00 | 0.00 | 72 | 1009.8 |
| 20260505081056 | 17 | 0.0 | 0.0 | 0.00 | 0.00 | 0.00 | 72 | 1009.8 | |
| 20260505080141 | 17 | 0.0 | 0.0 | 0.00 | 0.00 | 0.00 | 70 | 1009.8 | |
| 20260505075020 | 17 | 0.0 | 0.0 | 0.00 | 0.00 | 0.00 | 71 | 1009.9 | |
| 20260505074044 | 17 | 0.0 | 0.0 | 0.00 | 0.00 | 0.00 | 71 | 1009.9 | |
| 20260505073129 | 17 | 0.0 | 0.0 | 0.00 | 0.00 | 0.00 | 74 | 1010.0 | |
| 20260505072027 | 17 | 0.0 | 0.0 | 0.00 | 0.00 | 0.00 | 71 | 1010.1 | |
| 20260505071053 | 17 | 0.0 | 0.0 | 0.00 | 0.00 | 0.00 | 73 | 1010.1 | |
| 20260505070137 | 16 | 0.0 | 0.0 | 0.00 | 0.00 | 0.00 | 76 | 1010.2 | |
| 20260505065035 | 15 | 0.0 | 0.0 | 0.00 | 0.00 | 0.00 | 81 | 1010.2 | |
| 20260505064101 | 14 | 0.0 | 0.0 | 0.00 | 0.00 | 0.00 | 82 | 1010.3 | |
| 20260505063020 | 15 | 0.0 | 0.0 | 0.00 | 0.00 | 0.00 | 81 | 1010.2 | |
| 20260505062044 | 14 | 0.0 | 0.0 | 0.00 | 0.00 | 0.00 | 82 | 1010.2 | |
| 20260505061109 | 13 | 0.0 | 0.0 | 0.00 | 0.00 | 0.00 | 86 | 1010.2 | |
| 20260505060028 | 13 | 0.0 | 0.0 | 0.00 | 0.00 | 0.00 | 86 | 1010.3 | |
| 20260505055052 | 12 | 0.0 | 0.0 | 0.00 | 0.00 | 0.00 | 90 | 1010.3 | |
| 20260505054116 | 11 | 0.0 | 0.0 | 0.00 | 0.00 | 0.00 | 96 | 1010.5 | |
| 20260505053036 | 10 | 0.0 | 0.0 | 0.00 | 0.00 | 0.00 | 98 | 1010.4 | |
| 20260505052100 | 10 | 0.0 | 0.0 | 0.00 | 0.00 | 0.00 | 99 | 1010.4 | |
| 20260505051020 | 10 | 0.0 | 0.0 | 0.00 | 0.00 | 0.00 | 99 | 1010.3 | |
| 20260505041035 | 10 | 0.0 | 0.0 | 0.00 | 0.00 | 0.00 | 99 | 1010.3 | |
| 20260505040045 | 10 | 0.0 | 0.0 | 0.00 | 0.00 | 0.00 | 98 | 1010.4 | |
| 20260505035128 | 10 | 0.0 | 0.0 | 0.00 | 0.00 | 0.00 | 98 | 1010.3 | |
| 20260505034028 | 10 | 0.0 | 0.0 | 0.00 | 0.00 | 0.00 | 97 | 1010.2 | |
| 20260505033052 | 10 | 0.0 | 0.0 | 0.00 | 0.00 | 0.00 | 96 | 1010.4 | |
| 20260505032116 | 11 | 0.0 | 0.0 | 0.00 | 0.00 | 0.00 | 96 | 1010.6 | |
| 20260505031036 | 11 | 0.0 | 0.0 | 0.00 | 0.00 | 0.00 | 95 | 1010.6 | |
| 20260505030100 | 11 | 0.0 | 0.0 | 0.00 | 0.00 | 0.00 | 95 | 1010.7 | |
| 20260505025040 | 11 | 0.0 | 0.0 | 0.00 | 0.00 | 0.00 | 95 | 1010.7 | |
| 20260505024045 | 11 | 0.0 | 0.0 | 0.00 | 0.00 | 0.00 | 95 | 1010.7 | |
| 20260505023108 | 11 | 0.0 | 0.0 | 0.00 | 0.00 | 0.00 | 95 | 1010.9 | |
| 20260505022049 | 11 | 0.0 | 0.0 | 0.00 | 0.00 | 0.00 | 95 | 1011.1 | |
| 20260505021053 | 11 | 0.0 | 0.0 | 0.00 | 0.00 | 0.00 | 95 | 1011.1 | |
| 20260505020116 | 11 | 0.0 | 0.0 | 0.00 | 0.00 | 0.00 | 94 | 1011.2 | |
| 20260505015036 | 11 | 0.0 | 0.0 | 0.00 | 0.00 | 0.00 | 94 | 1011.3 |